Regional Weather Roundup
Issued by NWS Green Bay, WI

Home | Current Version | Previous Version | Graphics & Text | Print | Product List | Glossary Off
Versions: 1 2 3 4 5 6 7 8 9 10 11 12 13 14 15 16 17 18 19 20 21 22 23 24 25 26 27 28 29 30 31 32 33 34 35 36 37 38 39 40 41 42 43 44 45 46 47 48 49 50

000
ASUS43 KGRB 302111
RWRGRB

NORTH-CENTRAL AND NORTHEAST WISCONSIN REGIONAL WEATHER ROUNDUP
NATIONAL WEATHER SERVICE GREEN BAY WI
400 PM CDT TUE JUN 30 2015

WIZ005-009-010>012-018-019-302200-
NORTH CENTRAL WISCONSIN

CITY           SKY/WX    TMP DP  RH WIND       PRES   REMARKS
IRONWOOD       MOSUNNY   55  46  71 N7        29.96S
MANITOWISH WTR PTSUNNY   60  51  70 NE8       29.96S
ARBOR VITAE    MOSUNNY   62  50  65 N12G17    29.95S
EAGLE RIVER    CLOUDY    57  47  69 N10G16    29.95R
LAND O LAKES   CLOUDY    55  48  77 N8        29.96S
RHINELANDER    CLOUDY    62  50  64 N9        29.94R
PHILLIPS       MOSUNNY   64  51  62 NE12      29.94F
ANTIGO         PTSUNNY   64  54  70 N12G17    29.90S
TOMAHAWK       PTSUNNY   62  51  66 N5        29.94S
MERRILL        CLOUDY    65  53  66 N13       29.93R
$$

WIZ013-073-302200-
NORTHEAST WISCONSIN

CITY           SKY/WX    TMP DP  RH WIND       PRES   REMARKS
IRON MOUNTAIN  CLOUDY    59  49  69 N16       29.90R
MARINETTE      CLOUDY    64  52  63 N15       29.85R
OCONTO         CLOUDY    66  56  69 N6        29.85S
$$

WIZ017-030-035>037-045-302200-
CENTRAL WISCONSIN

CITY           SKY/WX    TMP DP  RH WIND       PRES   REMARKS
MEDFORD        CLOUDY    65  53  65 N13       29.93S
WAUSAU         CLOUDY    66  52  60 N9        29.90R
MOSINEE        NOT AVBL
MARSHFIELD     CLOUDY    66  52  60 N8        29.92R
WISC RAPIDS    MOSUNNY   72  52  49 N14G23    29.89S
STEVENS POINT  PTSUNNY   67  53  59 NW8       29.88S
WAUPACA        PTSUNNY   74  56  52 N12       29.85F
SHAWANO        CLOUDY    70  56  59 N9        29.86S
CLINTONVILLE   PTSUNNY   70  54  56 NE9       29.85F
$$

WIZ038-039-048-051-302200-
FOX VALLEY

CITY           SKY/WX    TMP DP  RH WIND       PRES   REMARKS
NWS GREEN BAY  CLOUDY    69  59  70 NE6       29.84F
APPLETON       PTSUNNY   70  54  56 NW12G18   29.86S
OSHKOSH        MOSUNNY   74  57  55 N12G23    29.83F
FOND DU LAC    MOSUNNY   72  59  63 NE14      29.84F
$$

WIZ022-050-052-302200-
EAST CENTRAL WISCONSIN

CITY           SKY/WX    TMP DP  RH WIND       PRES   REMARKS
STURGEON BAY   CLOUDY    63  54  72 N9        29.87S
MANITOWOC      CLOUDY    65  58  78 MISG      29.84S
SHEBOYGAN      PTSUNNY   66  59  78 E9        29.83S
$$

LMZ563-521-522-541>543-302200-
LAKESHORE

STATION/POSITION TIME  TEMP    WIND        PRES    VSBY  WAVE
                       AIR SEA DIR/SP/G                  HT/PER
                 (UTC) (F)     (DEG/KT/KT) (MB)    (MI)  (FT/S)
SHEBOYGAN LKSHOR 2100   57      40/ 12/ 14 1010.8R
KEWAUNEE LKSHORE 2000   60      50/  4/  6 1010.1F
NORTHPORT PIER   2000   58     340/ 18/ 22 1010.8F
N MID LAKE BUOY  2050   50 43  320/ 14/ 14 1010.6R         3/ 4
SISTER BAY LKSHO 2014   61     350/ 18/ 21   N/A
CHAMBERS ISLAND  2000   63     350/ 15/ 17 1010.8S
MENOMINEE LKSHOR 2000   64     350/ 10/ 15 1011.3S
$$


USA.gov is the U.S. government's official web portal to all federal, state and local government web resources and services.